Location: Ponte Samoggia
(44.5667°N, 11.1333°E)
Time: 00:14:20
(UTC+00:00)

Cosmos 1461 - Pass Details

Date: 26 May 2022
Orbit: 517 x 638 km, 65.0° (Epoch: 26 June)

Event Time Altitude Azimuth Distance (km) Brightness Sun altitude
Rises 00:02:23 0° 318° (NW) 2,744 6.9 -23.4°
Reaches altitude 10° 00:04:39 10° 311° (NW) 1,865 5.8 -23.3°
Enters shadow 00:07:19 32° 282° (WNW) 1,009 4.1 -23.2°
